EXPRESS-AM44

Last updated on Thu Nov 21 2024 00:02:41 GMT+0000 (Coordinated Universal Time)

1 33595U 09007A 24325.29306306 -.00000087 00000+0 00000+0 0 9990 2 33595 1.9810 85.4053 0004796 159.4983 269.4187 1.00271663 46537
UTC large
Height (km)
Speed (km/s)
/
Latitude / Longitude
Inclination (degrees)
Orbital Period (minutes)
Azimuth
Elevation
Range (km)
Doppler Factor

Next 0 passes for location: London (51.5072 / 0.1276)

Sorry there are no passes over London.